Location: *
(46.1200°N, 11.2700°E)
Time: 15:58:50
(UTC+00:00)

USA 234 - Pass Details

Date: 02 March 2021
Orbit: 1102 x 1105 km, 123.0° (Epoch: 08 April)

Event Time Altitude Azimuth Distance (km) Brightness Sun altitude
Exits shadow 18:37:01 15° 58° (ENE) 2,589 4.8 -17.1°
Maximum altitude 18:42:31 65° 138° (SE) 1,204 3.2 -18.0°
Drops below altitude 10° 18:48:59 10° 219° (SW) 2,955 5.9 -19.1°
Sets 18:51:29 0° 223° (SW) 3,910 6.6 -19.6°
